sat.trackr.live / text

‹ back to catalog

ECHOSTAR 21

NORAD 42749 · 2017-032A

PAYLOAD ACTIVE UNKNOWN

§ Identity

Operator
Country
US
Launch date
2017-06-08
Launch site
TYMSC
Launch vehicle
Mass (kg)
RCS (m²)

Purposes: comms

External: N2YO · Heavens-Above · Gunter

§ Orbital elements

Epoch: 2026-05-25T03:47:31.981920Z

Period
1,436.10 min
Inclination
1.7738°
Eccentricity
0.0002333
Mean motion
1.00271511 rev/d
Perigee alt
35,776.8 km
Apogee alt
35,796.5 km
Semi-major
42,164.8 km
B*
0.0000e+0
RAAN
354.2518°
Arg perigee
67.5088°
Mean anomaly
248.1173°
Rev number
3,286

§ Raw data

ECHOSTAR 211 42749U 17032A   26145.15800905  .00000060  00000+0  00000+0 0  99992 42749   1.7738 354.2518 0002333  67.5088 248.1173  1.00271511 32860

JSON: /api/v1/satellites/42749 · /tle

For live sub-satellite position, see the globe view (requires WebGL).

§ Visibility from observer

Set your observer location to see the next 7 days of passes ≥ 10°. The values pass through the URL so the page stays shareable.

No JS? Fill the form by hand. The geolocation button needs JavaScript.